Location: Fort Worth, Tx
(32.7431°N, 97.3695°W)
Time: 03:16:00
(UTC-04:00)

Vanguard 3 - Pass Details

Date: 29 February 2024
Orbit: 510 x 3234 km, 33.3° (Epoch: 24 April)

Event Time Altitude Azimuth Distance (km) Brightness Sun altitude
Rises 21:39:43 0° 255° (WSW) 6,403 12.7 -28.7°
Reaches altitude 10° 21:43:32 10° 255° (WSW) 5,636 12.2 -29.5°
Maximum altitude 22:02:28 88° 168° (SSE) 3,241 9.9 -33.4°
Enters shadow 22:09:57 50° 82° (E) 3,698 9.9 -34.9°
